Regional Weather Roundup
Issued by NWS

Home | Current Version | Previous Version | Graphics & Text | Print | Product List | Glossary On
Versions: 1 2 3 4 5 6 7 8 9 10 11 12 13 14 15 16 17 18 19 20 21 22 23 24 25 26 27 28 29 30 31 32 33 34 35 36 37 38 39 40 41 42 43 44 45 46 47 48 49 50
000
ASUS43 KMPX 241510
RWRMN
WEATHER ROUNDUP FOR MINNESOTA
NATIONAL WEATHER SERVICE TWIN CITIES/CHANHASSEN MN
1000 AM CDT SUN JUL 24 2016


NOTE: "FAIR" INDICATES FEW OR NO CLOUDS BELOW 12,000 FEET WITH NO
SIGNIFICANT WEATHER AND/OR OBSTRUCTIONS TO VISIBILITY. N/A MEANS
CURRENT SKY AND/OR WEATHER CONDITIONS ARE NOT AVAILABLE.

MNZ060>063-068>070-241600-
   Twin Cities Metro

CITY           SKY/WX    TMP DP  RH WIND       PRES   REMARKS
TWIN CITIES    MOSUNNY   79  67  66 NW10      29.85R
ST PAUL        SUNNY     79  67  66 W13       29.84R
CRYSTAL        SUNNY     79  64  60 NW12      29.84S
BLAINE         PTSUNNY   81  70  69 W13       29.84S
LAKEVILLE      SUNNY     77  68  73 W7        29.87R
EDEN PRAIRIE   SUNNY     80  67  64 NW14      29.86R
LAKEVILLE      SUNNY     77  68  73 W7        29.87R
SOUTH ST PAUL  SUNNY     79  68  67 W9        29.85R
LAKE ELMO      FAIR      79  70  73 W7        29.85S
$$
MNZ001>005-007-008-013>017-022>024-027-028-241600-
   Northwest Minnesota

CITY           SKY/WX    TMP DP  RH WIND       PRES   REMARKS
BEMIDJI        PTSUNNY   68  61  77 NW16      29.85R
HALLOCK        SUNNY     72  64  78 W10       29.81S
ROSEAU         SUNNY     70  63  78 W14       29.80R
WARROAD        MOSUNNY   68  63  83 W10G17    29.79R
THIEF RVR FALL SUNNY     68  60  75 W12       29.85S
CROOKSTON      SUNNY     72  64  78 NW15      29.86S
FOSSTON        SUNNY     68  59  73 W9        29.87S
DETROIT LAKES  SUNNY     70  61  73 NW12      29.93R
MOORHEAD       MOSUNNY   72  63  73 NW13G18   29.91R
PARK RAPIDS    MOSUNNY   71  60  68 NW14      29.88S
MAHNOMEN       FAIR      68  60  76 W9        29.89R
$$
MNZ006-009>011-018-025>026-241600-
   North Central Minnesota

CITY           SKY/WX    TMP DP  RH WIND       PRES   REMARKS
BAUDETTE       MOSUNNY   70  61  73 W9G21     29.78R
FLAG ISLAND    MOSUNNY   66  61  82 W16       29.75R
INTL FALLS     CLOUDY    68  61  78 W13G20    29.76R
WASKISH        MOSUNNY   70  61  73 W13G18    29.81R
BIG FORK       MOSUNNY   72  61  68 W9        29.81R
LONGVILLE      PTSUNNY   70  63  78 W10       29.85R
GRAND RAPIDS   PTSUNNY   72  62  71 W13       29.84R
CRANE LAKE     MOSUNNY   72  61  68 SW9       29.76R
ORR            SUNNY     72  57  60 NW13G21   29.74S
COOK           SUNNY     73  61  64 W12       29.77R
WALKER         CLOUDY    67  60  77 W12G18    29.86R
$$
MNZ012-019>021-037-241600-
   Northeast Minnesota

CITY           SKY/WX    TMP DP  RH WIND       PRES   REMARKS
DULUTH         MOSUNNY   75  66  73 W9        29.80R
ELY            MOSUNNY   73  64  73 W14       29.75R
HIBBING        PTSUNNY   72  63  73 W12       29.79R
EVELETH        MOSUNNY   73  61  66 W13G18    29.79S
DULUTH HARBOR  SUNNY     75  70  83 SW9       29.78R
TWO HARBORS    SUNNY     79  68  69 W7        29.75R
SILVER BAY     MOSUNNY   79  68  69 W5        29.73S
GRAND MARAIS     N/A     61  58  90 SW7       29.71S
G MARAIS ARPRT CLOUDY    70  63  78 SW3       29.75F
$$
MNZ029>031-032-039>041-046>048-054>057-064-241600-
   West Central Minnesota

CITY           SKY/WX    TMP DP  RH WIND       PRES   REMARKS
FERGUS FALLS   CLOUDY    70  61  73 NW15      29.94R
WHEATON        CLOUDY    73  64  73 W12G17    29.97R
MORRIS         MOSUNNY   72  64  78 NW15      29.93R
ALEXANDRIA     MOSUNNY   71  61  70 W14       29.93R
ELBOW LAKE     FAIR      68  62  82 NW14      29.94R
WADENA         MOSUNNY   68  61  77 W10G16    29.89R
GLENWOOD       MOSUNNY   70  63  78 NW16      29.92R
APPLETON       MOSUNNY   73  61  64 NW15      29.95R
BENSON         SUNNY     73  61  64 N15       29.94R
ORTONVILLE     PTSUNNY   73  61  64 NW12      29.96R
MADISON        MOSUNNY   73  61  64 NW13G18   29.97R
WILLMAR        FAIR      72  64  78 W9        29.95R
$$
MNZ033>034-036-042>043-049>051-058-059-241600-
   Central Minnesota

CITY           SKY/WX    TMP DP  RH WIND       PRES   REMARKS
ST CLOUD       SUNNY     75  64  68 NW13      29.87R
SAUK CENTRE    FAIR      71  62  74 W10       29.91R
PAYNESVILLE    MOSUNNY   71  64  77 W13G18    29.91R
AITKIN         MOSUNNY   73  63  68 W8        29.83R
PINE RIVER     MOSUNNY   70  63  78 W10       29.90R
BRAINERD       MOSUNNY   71  62  73 W13       29.86R
STAPLES        MOSUNNY   70  61  73 NW16      29.88R
LONG PRAIRIE   FAIR      72  61  68 W14G20    29.89S
LITTLE FALLS   PTSUNNY   70  59  68 W10       29.88R
LITCHFIELD     MOSUNNY   73  64  73 W10       29.92R
BUFFALO        MOSUNNY   75  62  64 W14       29.88R
MAPLE LAKE     MOSUNNY   75  64  67 W10       29.89R
HUTCHINSON     SUNNY     73  66  77 W12       29.92
$$
MNZ037-044-045-052-053-241600-
   East Central Minnesota

CITY           SKY/WX    TMP DP  RH WIND       PRES   REMARKS
PRINCETON      SUNNY     79  64  61 W9        29.86R
MORA           SUNNY     73  63  68 W7        29.85S
CAMBRIDGE      SUNNY     79  64  61 W9        29.83R
RUSH CITY      SUNNY     76  67  71 NW7       29.83S
MOOSE LAKE     SUNNY     73  64  73 W7        29.80S
HINCKLEY       FAIR      75  68  78 W7        29.82S
CLOQUET        MOSUNNY   73  64  73 W9        29.81R
MCGREGOR       PTSUNNY   72  63  73 W10       29.84R
$$
MNZ071>073-080-081-089-090-097-098-241600-
   Southwest Minnesota

CITY           SKY/WX    TMP DP  RH WIND       PRES   REMARKS
MONTEVIDEO     MOSUNNY   75  63  64 N12       29.97R
GRANITE FALLS  CLOUDY    73  65  75 W12       29.98R
CANBY          PTSUNNY   75  61  62 W13G18    30.00R
MARSHALL       CLOUDY    71  62  73 NW13      29.99R
REDWOOD FALLS  PTSUNNY   72  61  68 NW9       29.95R
OLIVIA         CLOUDY    70  63  78 NW8       29.93R
PIPESTONE      PTSUNNY   73  63  68 NW10      30.02R
WINDOM         SUNNY     73  61  64 NW12G20   29.98R
WORTHINGTON    SUNNY     75  63  66 MISG      30.00R
JACKSON        SUNNY     77  61  57 NW12      29.98R
TRACY          CLOUDY    72  63  74 NW9       29.99R
SLAYTON        MOSUNNY   74  61  63 NW13      30.01R
$$
MNZ065>067-074>077-082>085-091>093-241600-
   South Central Minnesota

CITY           SKY/WX    TMP DP  RH WIND       PRES   REMARKS
MANKATO        SUNNY     75  64  69 NW13      29.91R
NEW ULM        MOSUNNY   73  64  73 NW15      29.93R
ST JAMES       SUNNY     72  61  68 W13       29.95R
FAIRMONT       SUNNY     77  45  31 NW10      29.93R
GLENCOE        MOSUNNY   76  67  71 W14       29.90R
FARIBAULT      SUNNY     79  68  69 W8        29.89S
OWATONNA       SUNNY     79  66  65 W8        29.89S
WASECA         SUNNY     77  68  73 NW8       29.91S
ALBERT LEA     SUNNY     77  66  69 NW10      29.91R
$$
MNZ078>079-086>088-094>096-241600-
   Southeast Minnesota

CITY           SKY/WX    TMP DP  RH WIND       PRES   REMARKS
ROCHESTER      MOSUNNY   80  73  79 NW12      29.88R
RED WING       MOSUNNY   82  72  69 W9        29.83R
STANTON        SUNNY     79  68  69 W8        29.86R
DODGE CENTER   SUNNY     79  68  69 NW14G20   29.89R
WINONA         PTSUNNY   81  72  74 NW10      29.82R
AUSTIN         SUNNY     79  70  73 NW9G21    29.89R
PRESTON        SUNNY     80  70  72 NW13      29.87R
$$
ABBREVIATIONS USED IN REMARKS
   TC - TEMPERATURES IN CELSIUS
  WCI - WIND CHILL INDEX
   HX - HEAT INDEX
  VSB - VISIBILITY
$$



USA.gov is the U.S. government's official web portal to all federal, state and local government web resources and services.